Home > Weather > Poole > Past weeks

Flag for United Kingdom Weather for the Past 2 Weeks in Poole, England, United Kingdom

Now
43 °F

Scattered showers. Scattered clouds.


Feels Like: 36 °F
Forecast: 40 / 45 °F
Wind: 12 mph from Southeast

Location: Bournemouth Airport

Current Time: Feb 12, 2016 at 10:00:54 AM

Latest Report: Feb 12, 2016 at 9:20 AM


Visibility: N/A

Pressure: 29.27 "Hg

Humidity: 87%

Dew point: 39 °F

Location of PooleLocation

Historic Weather in Poole — Graph

°F

Poole Temperature Yesterday

Maximum temperature yesterday: 48 °F (at 1:50 PM)
Minimum temperature yesterday: 25 °F (at 6:20 AM)
Average temperature yesterday: 38 °F

High & Low Weather Summary for the Past Weeks

 TemperatureHumidityPressure
High57 °F (Jan 31, 2:20 PM)100% (Jan 28, 8:20 AM)30.42 "Hg (Jan 28, 8:20 AM)
Low25 °F (Feb 11, 6:20 AM)53% (Jan 30, 1:50 PM)29.09 "Hg (Feb 6, 8:20 PM)
Average47 °F82%29.79 "Hg
* Reported Jan 28 8:20 AM — Feb 12 8:50 AM, Poole, Weather by CustomWeather, © 2016

Note: Actual official high and low records may vary slightly from our data, if they occured in-between our weather recording intervals... More about our weather records

Advertising

Poole Weather History for the Previous 24 Hours

 ConditionsComfort  
Time TempWeatherWind HumidityBarometerVisibility
8:50 AM
Fri, Feb 12
41 °FPartly sunny.7 mph93%29.27 "HgN/A
8:20 AM41 °FPartly sunny.8 mph93%29.30 "HgN/A
7:20 AM41 °FPassing clouds.6 mph93%29.30 "HgN/A
6:50 AM43 °FPassing clouds.10 mph81%29.30 "HgN/A
6:20 AM45 °FPassing clouds.10 mph76%29.30 "HgN/A
5:50 AM45 °FPassing clouds.12 mph76%29.30 "HgN/A
9:20 PM
Thu, Feb 11
39 °FClear.6 mph93%29.56 "Hg10 mi
8:50 PM39 °FClear.5 mph93%29.56 "Hg10 mi
8:20 PM37 °FClear.1 mph93%29.56 "Hg10 mi
7:50 PM36 °FPassing clouds.2 mph93%29.59 "HgN/A
7:20 PM36 °FPassing clouds.1 mph93%29.59 "HgN/A
6:50 PM39 °FPassing clouds.3 mph81%29.59 "HgN/A
6:20 PM41 °FPassing clouds.5 mph81%29.59 "HgN/A
5:50 PM43 °FPassing clouds.3 mph81%29.59 "HgN/A
5:20 PM43 °FPassing clouds.6 mph76%29.59 "HgN/A
4:50 PM43 °FPassing clouds.8 mph76%29.59 "HgN/A
4:20 PM46 °FScattered clouds.9 mph66%29.59 "HgN/A
3:50 PM48 °FScattered clouds.10 mph66%29.59 "HgN/A
3:20 PM46 °FScattered clouds.7 mph76%29.62 "HgN/A
2:50 PM46 °FScattered clouds.8 mph71%29.62 "HgN/A
2:20 PM46 °FScattered clouds.7 mph71%29.62 "HgN/A
1:50 PM48 °FScattered clouds.8 mph66%29.62 "HgN/A
1:20 PM46 °FPassing clouds.7 mph76%29.62 "HgN/A
12:50 PM46 °FPassing clouds.5 mph76%29.65 "HgN/A
12:20 PM45 °FPassing clouds.3 mph81%29.65 "HgN/A
11:50 AM41 °FPassing clouds.3 mph100%29.65 "HgN/A
11:20 AM41 °FScattered clouds.1 mph93%29.65 "HgN/A
10:50 AM37 °FScattered clouds.1 mph93%29.65 "HgN/A
10:20 AM34 °FPassing clouds.No wind93%29.68 "Hg5 mi
Weather by CustomWeather, © 2016

See weather overviewHow to use our weather pages